Regional Weather Roundup
Issued by NWS

Home | Current Version | Previous Version | Graphics & Text | Print | Product List | Glossary On
Versions: 1 2 3 4 5 6 7 8 9 10 11 12 13 14 15 16 17 18 19 20 21 22 23 24 25 26 27 28 29 30 31 32 33 34 35 36 37 38 39 40 41 42 43 44 45 46 47 48 49 50
000
ASUS43 KLOT 011200
RWRIL

ILLINOIS REGIONAL WEATHER ROUNDUP
NATIONAL WEATHER SERVICE CHICAGO/ROMEOVILLE IL
600 AM CST SUN FEB 01 2015

NOTE: "FAIR" INDICATES FEW OR NO CLOUDS BELOW 12,000 FEET WITH NO
SIGNIFICANT WEATHER AND/OR OBSTRUCTIONS TO VISIBILITY.

* THESE STATIONS ARE NOT UNDER NWS QUALITY CONTROL. THEY ALSO MAY NOT
  REPORT WEATHER SUCH AS PRECIPITATION OR FOG.

ILZ001-002-007-009-015-016-024-011300-
NORTHWEST ILLINOIS

CITY           SKY/WX    TMP DP  RH WIND       PRES   REMARKS
MOLINE         LGT SNOW  32  31  96 E13       29.85F VSB 3/4 WCI  22
6HR MIN TEMP:  32; 6HR MAX TEMP:  33; 6HR PCP:  0.48;

STERLING*        N/A    N/A N/A N/A MISG        N/A
$$

ILZ003-004-008-010-011-017-018-011300-
NORTH CENTRAL ILLINOIS

CITY           SKY/WX    TMP DP  RH WIND       PRES   REMARKS
ROCKFORD       LGT SNOW  29  25  85 NE18      29.98F VSB 1   WCI  16
6HR MIN TEMP:  29; 6HR MAX TEMP:  31; 6HR PCP:  0.29;

$$

ILZ005-006-012>014-019>023-011300-
NORTHEAST ILLINOIS

CITY           SKY/WX    TMP DP  RH WIND       PRES   REMARKS
CHICAGO-OHARE  SNOW      30  29  96 E10       30.00F VSB 1/2 WCI  21
6HR MIN TEMP:  30; 6HR MAX TEMP:  31; 6HR PCP:  0.23;

CHICAGO-MIDWAY LGT SNOW  33  31  92 E10       30.00F VSB 3/4 WCI  25
6HR MIN TEMP:  33; 6HR MAX TEMP:  33; 6HR PCP:  0.13;

AURORA         SNOW      32  29  88 E17       29.96F VSB 1/2 WCI  21
6HR MIN TEMP:  32; 6HR MAX TEMP:  33; 6HR PCP:  0.04;

WAUKEGAN       LGT SNOW  28  27  96 NE18      30.04F VSB 3/4 WCI  15
6HR MIN TEMP:  28; 6HR MAX TEMP:  30; 6HR PCP: TRACE;

DUPAGE AIRPORT LGT SNOW  31  28  89 E16       29.98F VSB 3/4 WCI  20
6HR MIN TEMP:  31; 6HR MAX TEMP:  31; 6HR PCP:  0.06;

WHEELING       LGT SNOW  30  29  96 E12       30.03F VSB 3/4 WCI  20
6HR MIN TEMP:  30; 6HR MAX TEMP:  31; 6HR PCP: TRACE;

NORTHERLY ISL    N/A     31  30  96 E14         N/A  WCI  21
$$

LMZ740>746-011300-
SOUTHERN LAKE MICHIGAN

STATION/POSITION SKY/WX   TEMP    WIND        PRES    VSBY  WAVE
                          AIR SEA DIR/SP/G                  HT/PER
                          (F)     (DEG/KT/KT) (MB)    (MI)  (FT/S)
WAUKEGAN HARBOR            29      60/ 23/ 28   N/A
HARRISON CRIB              31      80/ 16/ 18   N/A
BURNHAM HARBOR             31      80/ 13/ 14   N/A
CALUMET HARBOR             31      70/  9/ 12   N/A
MICHIGAN CITY              30      80/  8/ 11   N/A
$$

ILZ025>027-034>036-040-047-049-050-058-095>099-011300-
WEST-CENTRAL ILLINOIS

CITY           SKY/WX    TMP DP  RH WIND       PRES   REMARKS
QUINCY         LGT SNOW  32  31  96 SE8       29.78F VSB 3/4 WCI  25
$$

ILZ028>032-037-038-041>044-048-051>054-059>061-011300-
CENTRAL ILLINOIS

CITY           SKY/WX    TMP DP  RH WIND       PRES   REMARKS
DECATUR        LGT SNOW  33  32  96 SE16      29.88F VSB 1   WCI  23
PEORIA         LGT SNOW  34  32  92 E9G18     29.86F VSB 3/4 WCI  27
6HR MIN TEMP:  34; 6HR MAX TEMP:  34; 6HR PCP:  0.57;

SPRINGFIELD    LGT SNOW  34  31  88 SE15      29.84F FOG     WCI  24
6HR MIN TEMP:  33; 6HR MAX TEMP:  36; 6HR PCP:  0.19;

TAYLORVILLE    NOT AVBL
$$

ILZ033-039-045-046-055>057-062-063-011300-
EAST-CENTRAL ILLINOIS

CITY           SKY/WX    TMP DP  RH WIND       PRES   REMARKS
CHAMPAIGN      LGT SNOW  33  32  96 E10       29.92F VSB 1   WCI  25
MATTOON        LGT SNOW  33  27  78 MISG      29.93S
$$

ILZ079-100>102-011300-
SOUTHWEST ILLINOIS

CITY           SKY/WX    TMP DP  RH WIND       PRES   REMARKS
BELLEVILLE     RAIN      35  34  99 N3        29.87S FOG
CAHOKIA*       RAIN      35  33  92 E9        29.85F FOG     WCI  28
$$

ILZ064>066-069>071-074>076-080>082-084>086-088>090-092>094-011300-
SOUTH-CENTRAL ILLINOIS

CITY           SKY/WX    TMP DP  RH WIND       PRES   REMARKS
CARBONDALE     LGT RAIN  41  31  67 S9        29.83F
6HR MIN TEMP:  39; 6HR MAX TEMP:  44; 6HR PCP:  0.03;

MT. VERNON     CLOUDY    36  28  75 E5        29.87F WCI  32
$$

ILZ067-068-072-073-078-083-087-091-011300-
SOUTHEAST ILLINOIS

CITY           SKY/WX    TMP DP  RH WIND       PRES   REMARKS
LAWRENCEVILLE  CLOUDY    36  26  67 E8        29.92F WCI  30
$$

ABBREVIATIONS USED IN REMARKS
   TC - TEMPERATURE IN CELSIUS
  WCI - WIND CHILL INDEX
   HX - HEAT INDEX
  VSB - VISIBILITY
$$




USA.gov is the U.S. government's official web portal to all federal, state and local government web resources and services.